FLOCK 3P-60

Last updated on Wed Feb 14 2018 16:20:23 GMT+0000 (Greenwich Mean Time)

1 41976U 17008AE 18045.48907648 .00001478 00000-0 64140-4 0 9996 2 41976 97.4664 111.0655 0009592 70.8455 289.3820 15.23907003 54593
UTC large
Height (km)
Speed (km/s)
/
Latitude / Longitude
Inclination (degrees)
Orbital Period (minutes)
Azimuth
Elevation
Range (km)
Doppler Factor

Next 0 passes for location: London (51.5072 / 0.1276)

Sorry there are no passes over London.